STARLINK-4024, 52599

Orbit data source: Space-Track

STARLINK-4024, 52599 is a payload satellite owned by SpaceX/Seattle (US) in LEO that was launched on Sat, 14 May 2022 UTC via an FALCON 9 launch vehicle from the Air Force Eastern Test Range (AFETR). Payload-class satellites include a variety of spacecraft equipped with specific instruments for various scientific and technological missions. These include communications satellites like Starlink; space stations such as the ISS; scientific satellites like the Hubble; Earth observation satellites from companies like Planet Labs, Umbra, and HawkEye 360; GPS; miniature CubeSats for education and research; and military/defense satellites.

Loading next visibility...
Identifier
52599, 2022-052B
Orbit
LEO
Country
Flag of USUS
Related business
Manufacturer
SpaceX/Seattle
Mission
Operational Commercial Communications
Bus & Motor
STARLINK, Unknown motor
Mass
297 kg wet, ~275 kg dry
Launch date (UTC)
2022-05-14 (4 years ago)
Launch vehicle
FALCON 9
Launch site
Air Force Eastern Test Range (AFETR)
Object type
Payload
Rocket body
Debris
Shape & HBR
Box + 1 Pan, 10.1 m
Radar Cross Section
13.562 m², Large (>1 m²)

Expand to show TLE details & history
Last TLE update: 2 days ago

TLE from 2 days ago
0 STARLINK-4024
1 52599U 22052B   26171.41668980  .00111319  00000-0  48744-2 0  9995
2 52599  53.1592 177.6430 0002553  78.5858  64.6085 15.21155947  5814
Epoch: 2026-06-20T10:00Z
TLE epoch observation values (Epoch: 2026-06-20T10:00:01.998Z)
Latitude
28.71804°
Longitude
-85.09019°
Altitude
503.096 km
Speed
7.617 km/s
True Right ascension
22h 14m 11s
True Declination
28° 34' 05"
Sunlit
Object was in daylight at epoch
Visualization orbit readout
Latitude
Unknown
Longitude
Unknown
Altitude
Unknown
Speed
Unknown
Apparent Right ascension
Unknown
Apparent Declination
Unknown
Sunlit
N/A
Visualization observer readout
Local Sidereal Time
21:31:15
Azimuth
Unknown
Elevation
Unknown
Doppler factor
Unknown
Orbital elements
Apogee altitude
504.365 km
Perigee altitude
500.852 km
Semi-major axis
6,880.745 km
Eccentricity
0.00026
Inclination
53.1592°
RAAN
177.643°
Arg. of periapsis
78.5858°
True anomaly
64.63493°
Mean anomaly
64.6085°
Eccentric anomaly
64.62172°
Mean motion
3.80268 °/min
Orbital period
94.67 mins
BSTAR
0.0048744
Loading maneuver chart data...
Computing Atmospheric mass density...
Loading historical data...
Loading historical data...
Loading historical data...
Loading historical data...
Loading historical data...
Loading historical data...
Loading historical data...

Documentation

Showing up to 5 results
|